2023/01/28 00:00:00,36.7,-0.6
2023/01/28 00:10:00,36.9,-0.4
2023/01/28 00:20:00,36.9,-0.4
2023/01/28 00:30:00,37.5,-0.9
2023/01/28 00:40:00,38.6,-0.2
2023/01/28 00:50:00,39.2,-0.9
2023/01/28 01:00:00,39.6,-0.4
2023/01/28 01:10:00,40.1, 0.2
2023/01/28 01:20:00,41.3,-0.2
2023/01/28 01:30:00,42.1,-0.5
2023/01/28 01:40:00,43.0,-0.4
2023/01/28 01:50:00,43.3,-0.2
2023/01/28 02:00:00,44.0,-0.4
2023/01/28 02:10:00,45.1,-0.3
2023/01/28 02:20:00,47.0,-0.3
2023/01/28 02:30:00,48.3,-0.6
2023/01/28 02:40:00,49.0,-0.4
2023/01/28 02:50:00,50.0,-0.7
2023/01/28 03:00:00,50.9,-0.2
2023/01/28 03:10:00,51.7,-0.6
2023/01/28 03:20:00,52.5,-0.9
2023/01/28 03:30:00,53.8,-0.4
2023/01/28 03:40:00,54.8,-1.1
2023/01/28 03:50:00,55.8,-0.5
2023/01/28 04:00:00,56.1,-0.7
2023/01/28 04:10:00,55.9,-0.7
2023/01/28 04:20:00,55.4,-0.7
2023/01/28 04:30:00,56.1,-0.4
2023/01/28 04:40:00,56.5,-0.5
2023/01/28 04:50:00,56.6,-0.9
2023/01/28 05:00:00,56.3,-0.5
2023/01/28 05:10:00,56.5,-0.6
2023/01/28 05:20:00,56.6,-0.7
2023/01/28 05:30:00,57.2,-0.9
2023/01/28 05:40:00,58.4,-1.1
2023/01/28 05:50:00,59.6,-0.8
2023/01/28 06:00:00,59.8,-0.7
2023/01/28 06:10:00,60.3,-0.5
2023/01/28 06:20:00,60.9,-0.6
2023/01/28 06:30:00,62.4,-0.7
2023/01/28 06:40:00,62.6,-0.7
2023/01/28 06:50:00,18.8,-1.4
2023/01/28 07:00:00,62.6,-1.1
2023/01/28 07:10:00,63.2,-1.2
2023/01/28 07:20:00,64.0,-0.4
2023/01/28 07:30:00,64.9,-0.4
2023/01/28 07:40:00,65.2,-0.8
2023/01/28 07:50:00,65.1,-0.4
2023/01/28 08:00:00,65.1, 0.0
2023/01/28 08:10:00,65.6,-0.4
2023/01/28 08:20:00,65.9,-0.4
2023/01/28 08:30:00,66.1,-0.4
2023/01/28 08:40:00,65.9,-0.3
2023/01/28 08:50:00,66.0, 0.0
2023/01/28 09:00:00,66.8, 0.0
2023/01/28 09:10:00,67.9, 0.0
2023/01/28 09:20:00,68.3, 0.2
2023/01/28 09:30:00,68.4, 0.5
2023/01/28 09:40:00,68.2, 0.3
2023/01/28 09:50:00,67.5, 2.1
2023/01/28 10:00:00,65.3, 2.5
2023/01/28 10:10:00,58.6, 2.3
2023/01/28 10:20:00,58.5, 1.8
2023/01/28 10:30:00,58.1, 1.8
2023/01/28 10:40:00,56.7, 0.9
2023/01/28 10:50:00,58.5, 1.0
2023/01/28 11:00:00,59.0, 2.2
2023/01/28 11:10:00,58.7, 2.8
2023/01/28 11:20:00,58.4, 0.8
2023/01/28 11:30:00,59.2, 1.3
2023/01/28 11:40:00,59.2, 3.1
2023/01/28 11:50:00,59.0, 3.7
2023/01/28 12:00:00,58.3, 3.5
2023/01/28 12:10:00,56.1, 2.6
2023/01/28 12:20:00,56.5, 2.5
2023/01/28 12:30:00,56.8, 2.4
2023/01/28 12:40:00,56.6, 2.6
2023/01/28 12:50:00,56.8, 2.8
2023/01/28 13:00:00,57.4, 1.4
2023/01/28 13:10:00,57.3, 3.0
2023/01/28 13:20:00,57.4, 2.2
2023/01/28 13:30:00,57.4, 1.9
2023/01/28 13:40:00,57.6, 1.0
2023/01/28 13:50:00,58.0, 1.6
2023/01/28 14:00:00,58.3, 2.5
2023/01/28 14:10:00,57.8, 2.5
2023/01/28 14:20:00,57.7, 1.9
2023/01/28 14:30:00,57.8, 1.1
2023/01/28 14:40:00,57.6, 1.8
2023/01/28 14:50:00,57.9, 1.7
2023/01/28 15:00:00,57.9, 1.7
2023/01/28 15:10:00,57.7, 1.5
2023/01/28 15:20:00,57.7, 2.1
2023/01/28 15:30:00,57.6, 7.5
2023/01/28 15:40:00,57.6, 3.9
2023/01/28 15:50:00,57.5, 2.1
2023/01/28 16:00:00,57.2, 2.1
2023/01/28 16:10:00,57.0, 1.8
2023/01/28 16:20:00,57.1, 1.4
2023/01/28 16:30:00,57.0, 1.3
2023/01/28 16:40:00,57.1, 0.7
2023/01/28 16:50:00,57.1, 0.3
2023/01/28 17:00:00,57.1, 0.3
2023/01/28 17:10:00,57.2, 0.0
2023/01/28 17:20:00,57.2,-0.1
2023/01/28 17:30:00,57.1,-0.4
2023/01/28 17:40:00,57.0,-0.4
2023/01/28 17:50:00,57.0,-1.0
2023/01/28 18:00:00,57.0,-0.9
2023/01/28 18:10:00,56.8,-0.5
2023/01/28 18:20:00,56.8,-0.9
2023/01/28 18:30:00,57.0,-1.4
2023/01/28 18:40:00,57.1,-1.7
2023/01/28 18:50:00,57.6,-1.3
2023/01/28 19:00:00,57.6,-1.0
2023/01/28 19:10:00,57.5,-1.5
2023/01/28 19:20:00,57.3,-1.2
2023/01/28 19:30:00,57.5,-1.1
2023/01/28 19:40:00,57.6,-1.2
2023/01/28 19:50:00,57.5,-1.4
2023/01/28 20:00:00,57.3,-1.2
2023/01/28 20:10:00,57.5,-1.4
2023/01/28 20:20:00,57.5,-1.1
2023/01/28 20:30:00,57.6,-1.2
2023/01/28 20:40:00,57.7,-1.2
2023/01/28 20:50:00,58.0,-1.1
2023/01/28 21:00:00,57.9,-1.7
2023/01/28 21:10:00,57.7,-1.6
2023/01/28 21:20:00,57.4,-1.7
2023/01/28 21:30:00,57.3,-1.3
2023/01/28 21:40:00,57.2,-1.3
2023/01/28 21:50:00,57.2,-1.2
2023/01/28 22:00:00,57.3,-1.6
2023/01/28 22:10:00,57.4,-1.9
2023/01/28 22:20:00,57.2,-1.7
2023/01/28 22:30:00,57.2,-1.6
2023/01/28 22:40:00,57.4,-2.1
2023/01/28 22:50:00,57.3,-1.6
2023/01/28 23:00:00,57.3,-1.7
2023/01/28 23:10:00,57.3,-1.8
2023/01/28 23:20:00,57.3,-2.2
2023/01/28 23:30:00,57.2,-2.3
2023/01/28 23:40:00,57.2,-2.4
2023/01/28 23:50:00,57.3,-2.8
